Weather History for Capo Bellavista, Italy

Change the Weather History Date:

Friday, October 11, 2013

  Actual Average (LIED) Record (LIED)
Temperature  
Mean Temperature 70 °F -  
Max Temperature 77 °F 68 °F 88 °F (2012)
Min Temperature 63 °F 57 °F 51 °F (1998)
Cooling Degree Days 5    
Growing Degree Days 20 (Base 50)    
Moisture  
Dew Point 60 °F    
Average Humidity 73    
Maximum Humidity 88    
Minimum Humidity 57    
Precipitation  
Precipitation 0.02 in 0.09 in - ()
Sea Level Pressure  
Sea Level Pressure 29.89 in    
Wind  
Wind Speed 6 mph ()    
Max Wind Speed 12 mph    
Max Gust Speed -    
Visibility 7.4 miles    
Events Rain    
Averages and records for this station are not official NWS values.
T = Trace of Precipitation, MM = Missing Value Source: Averaged Metar Reports

Daily Weather History Graph

Daily Weather History Graph

Search for Another Location

Airport:

Trip Planner

Search our weather history database for the weather conditions in past years. The results will help you decide how hot, cold, wet, or windy it might be!

Date:

Astronomy

Oct. 11, 2013 Rise Set
Actual Time 7:27 AM CEST 6:47 PM CEST
Civil Twilight 7:00 AM CEST 7:14 PM CEST
Nautical Twilight 6:28 AM CEST 7:46 PM CEST
Astronomical Twilight 5:57 AM CEST 8:17 PM CEST
Moon 1:55 PM CEST (10/11) No Moon Set
Length of Visible Light 12h 14m
Length of Day
11h 20m
Waxing Crescent, 44% of the Moon is Illuminated
Oct 11
Waxing Crescent
Oct 12
First Quarter
Oct 19
Full
Oct 27
Last Quarter
Nov 3
New

Hourly Weather History & Observations

Time (CEST) Temp. Dew Point Humidity Pressure Visibility Wind Dir Wind Speed Gust Speed Precip Events Conditions
12:55 AM 66.2 °F 55.4 °F 68% 29.86 in - WNW 8.1 mph - N/A   Clear
1:55 AM 66.2 °F 55.4 °F 68% 29.83 in - WSW 8.1 mph - N/A   Clear
2:00 AM 66 °F 56 °F 61% 29.85 in 12 mi WSW 8.1 mph - -  
2:55 AM 66.2 °F 53.6 °F 64% 29.83 in - West 3.5 mph - N/A   Clear
3:55 AM 66.2 °F 53.6 °F 64% 29.83 in - WNW 4.6 mph - N/A   Clear
4:55 AM 66.2 °F 51.8 °F 60% 29.83 in - South 3.5 mph - N/A   Clear
5:55 AM 66.2 °F 53.6 °F 64% 29.80 in - SSW 3.5 mph - N/A   Clear
6:55 AM 66.2 °F 53.6 °F 64% 29.83 in 6.2 mi West 5.8 mph - N/A   Scattered Clouds
7:55 AM 66.2 °F 55.4 °F 68% 29.83 in 6.2 mi SW 4.6 mph - N/A   Mostly Cloudy
8:00 AM 67 °F 55 °F 57% 29.83 in 12 mi SW 4.6 mph - -   Mostly Cloudy
8:55 AM 66.2 °F 57.2 °F 73% 29.86 in 6.2 mi NNW 3.5 mph - N/A   Scattered Clouds
9:55 AM 71.6 °F 64.4 °F 78% 29.89 in 6.2 mi East 9.2 mph - N/A   Partly Cloudy
10:55 AM 75.2 °F 64.4 °F 69% 29.89 in 6.2 mi ESE 9.2 mph - N/A   Partly Cloudy
11:55 AM 75.2 °F 64.4 °F 69% 29.89 in 6.2 mi ESE 10.4 mph - N/A   Partly Cloudy
12:55 PM 75.2 °F 64.4 °F 69% 29.92 in 6.2 mi ESE 10.4 mph - N/A   Partly Cloudy
1:55 PM 75.2 °F 66.2 °F 73% 29.92 in 6.2 mi SE 8.1 mph - N/A   Partly Cloudy
2:00 PM 75 °F 66 °F 68% 29.91 in 12 mi SE 8.1 mph - -   Scattered Clouds
2:55 PM 73.4 °F 66.2 °F 78% 29.92 in 6.2 mi ESE 11.5 mph - N/A   Scattered Clouds
3:55 PM 71.6 °F 64.4 °F 78% 29.92 in 6.2 mi ESE 11.5 mph - N/A   Partly Cloudy
4:55 PM 71.6 °F 66.2 °F 83% 29.92 in 6.2 mi SE 4.6 mph - N/A   Scattered Clouds
5:55 PM 69.8 °F 66.2 °F 88% 29.92 in 6.2 mi SW 3.5 mph - N/A   Scattered Clouds
6:55 PM 68.0 °F 64.4 °F 88% 29.95 in 6.2 mi NE 4.6 mph - N/A Rain Rain
7:55 PM 66.2 °F 59.0 °F 78% 29.95 in 6.2 mi South 2.3 mph - N/A   Scattered Clouds
8:00 PM 66 °F 60 °F 75% 29.96 in 12 mi South 2.3 mph - - Rain Light Rain
8:55 PM 66.2 °F 60.8 °F 83% 29.95 in 6.2 mi NW 9.2 mph - N/A   Scattered Clouds
9:55 PM 64.4 °F 59.0 °F 83% 29.98 in 6.2 mi WNW 9.2 mph - N/A   Partly Cloudy
10:55 PM 64.4 °F 59.0 °F 83% 29.95 in - WNW 6.9 mph - N/A   Clear
11:55 PM 64.4 °F 59.0 °F 83% 29.95 in - West 6.9 mph - N/A   Clear